Showing default

YAOGAN-30 U, 46807

Orbit data source: Space-Track

YAOGAN-30 U, 46807 is a payload satellite owned by PLA SSF (CN) in LEO that was launched on Mon, 26 Oct 2020 UTC via a CHANG ZHENG 2C launch vehicle from the Xichang Space Center, China (XSC). Payload-class satellites include a variety of spacecraft equipped with specific instruments for various scientific and technological missions. These include communications satellites like Starlink; space stations such as the ISS; scientific satellites like the Hubble; Earth observation satellites from companies like Planet Labs, Umbra, and HawkEye 360; GPS; miniature CubeSats for education and research; and military/defense satellites.

Loading next visibility...
Identifier
46807, 2020-076A
Orbit
LEO
Country
Flag of CNCN / PRC
Related business
Manufacturer
SECM
Mission
Operational Defense Sigint
Bus & Motor
Unknown
Mass
~500 kg wet, ~500 kg dry
Launch date (UTC)
2020-10-26 (5 years ago)
Launch vehicle
CHANG ZHENG 2C
Launch site
Xichang Space Center, China (XSC)
Object type
Payload
Rocket body
Debris
Shape & HBR
Box + 2 Pan, 0.5 m
Radar Cross Section
0.446 m², Large (>1 m²)

Expand to show TLE details & history
Last TLE update: 10 hours ago

TLE from 10 hours ago
0 YAOGAN-30 U
1 46807U 20076A   25311.30353370  .00004967  00000-0  38249-3 0  9991
2 46807  34.9955   2.1870 0000779 235.1263 124.9372 15.01087915274733
Epoch: 2025-11-07T07:17Z
TLE epoch observation values (Epoch: 2025-11-07T07:17:05.311Z)
Latitude
Longitude
-153.83455°
Altitude
562.767 km
Speed
7.582 km/s
True Right ascension
00h 08m 44s
True Declination
0° 00' 00"
Sunlit
Object was in full shadow at epoch
Visualization orbit readout
Latitude
Unknown
Longitude
Unknown
Altitude
Unknown
Speed
Unknown
Apparent Right ascension
Unknown
Apparent Declination
Unknown
Sunlit
N/A
Visualization observer readout
Local Sidereal Time
13:33:47
Azimuth
Unknown
Elevation
Unknown
Doppler factor
Unknown
Orbital elements
Apogee altitude
567.301 km
Perigee altitude
566.219 km
Semi-major axis
6,944.897 km
Eccentricity
0.00008
Inclination
34.9955°
RAAN
2.187°
Arg. of periapsis
235.1263°
True anomaly
124.94452°
Mean anomaly
124.9372°
Eccentric anomaly
124.94086°
Mean motion
3.75011 °/min
Orbital period
96 mins
BSTAR
0.00038249
Loading maneuver chart data...
Computing Atmospheric mass density...
Loading historical data...
Loading historical data...
Loading historical data...
Loading historical data...
Loading historical data...
Loading historical data...
Loading historical data...
Other satellites on launch #76 in the year 2020 (2020-10-26 UTC)

Documentation

Showing up to 5 results
|